Year,Month,Day,Hour,Minute,Value (Times are PST for temperature in C)
2017,08,28,13,27,25.50
2017,08,28,13,28,25.60
2017,08,28,13,29,25.60
2017,08,28,13,30,25.70
2017,08,28,13,31,25.70
2017,08,28,13,32,25.80
2017,08,28,13,33,25.90
2017,08,28,13,34,25.90
2017,08,28,13,35,25.90
2017,08,28,13,36,25.90
2017,08,28,13,37,26.00
2017,08,28,13,38,26.00
2017,08,28,13,39,26.10
2017,08,28,13,40,26.10
2017,08,28,13,41,26.10
2017,08,28,13,42,26.20
2017,08,28,13,43,26.10
2017,08,28,13,44,26.10
2017,08,28,13,45,26.10
2017,08,28,13,46,26.10
2017,08,28,13,47,26.00
2017,08,28,13,48,26.00
2017,08,28,13,49,26.00
2017,08,28,13,50,25.90
2017,08,28,13,51,25.90
2017,08,28,13,52,25.90
2017,08,28,13,53,25.90
2017,08,28,13,54,25.90
2017,08,28,13,55,26.00
2017,08,28,13,56,26.00
2017,08,28,13,57,26.10
2017,08,28,13,58,26.10
2017,08,28,13,59,26.10
2017,08,28,14,00,26.10
2017,08,28,14,01,26.10
2017,08,28,14,02,26.10
2017,08,28,14,03,26.10
2017,08,28,14,04,26.10
2017,08,28,14,05,26.10
2017,08,28,14,06,26.10
2017,08,28,14,07,26.00
2017,08,28,14,08,26.00
2017,08,28,14,09,26.00
2017,08,28,14,10,26.00
2017,08,28,14,11,26.00
2017,08,28,14,12,26.00
2017,08,28,14,13,26.00
2017,08,28,14,14,26.00
2017,08,28,14,15,26.00
2017,08,28,14,16,26.10
2017,08,28,14,17,26.10
2017,08,28,14,18,26.10
2017,08,28,14,19,26.20
2017,08,28,14,20,26.20
2017,08,28,14,21,26.20
2017,08,28,14,22,26.20
2017,08,28,14,23,26.20
2017,08,28,14,24,26.20
2017,08,28,14,25,26.20
2017,08,28,14,26,26.10
2017,08,28,14,27,26.10
2017,08,28,14,28,26.10
2017,08,28,14,29,26.00
2017,08,28,14,30,26.00
2017,08,28,14,31,26.00
2017,08,28,14,32,26.00
2017,08,28,14,33,26.00
2017,08,28,14,34,26.10
2017,08,28,14,35,26.10
2017,08,28,14,36,26.10
2017,08,28,14,37,26.10
2017,08,28,14,38,26.20
2017,08,28,14,39,26.10
2017,08,28,14,40,26.10
2017,08,28,14,41,26.00
2017,08,28,14,42,25.90
2017,08,28,14,43,25.90
2017,08,28,14,44,25.90
2017,08,28,14,45,25.90
2017,08,28,14,46,25.90
2017,08,28,14,47,26.00
2017,08,28,14,48,26.10
2017,08,28,14,49,26.10
2017,08,28,14,50,26.20
2017,08,28,14,51,26.20
2017,08,28,14,52,26.20
2017,08,28,14,53,26.20
2017,08,28,14,54,26.20
2017,08,28,14,55,26.20
2017,08,28,14,56,26.10
2017,08,28,14,57,26.10
2017,08,28,14,58,26.00
2017,08,28,14,59,25.80
2017,08,28,15,00,25.60
2017,08,28,15,01,25.40
2017,08,28,15,02,25.20
2017,08,28,15,03,25.10
2017,08,28,15,04,24.90
2017,08,28,15,05,24.80
2017,08,28,15,06,24.70
2017,08,28,15,07,24.60
2017,08,28,15,08,24.50
2017,08,28,15,09,24.40
2017,08,28,15,10,24.30
2017,08,28,15,11,24.30
2017,08,28,15,12,24.20
2017,08,28,15,13,24.20
2017,08,28,15,14,24.20
2017,08,28,15,15,24.30
2017,08,28,15,16,24.30
2017,08,28,15,17,24.40
2017,08,28,15,18,24.50
2017,08,28,15,19,24.50
2017,08,28,15,20,24.60
2017,08,28,15,21,24.70
2017,08,28,15,22,24.80
2017,08,28,15,23,24.90
2017,08,28,15,24,25.00
2017,08,28,15,25,25.10
2017,08,28,15,26,25.20
2017,08,28,15,27,25.20
2017,08,28,15,28,25.20
2017,08,28,15,29,25.10
2017,08,28,15,30,25.10
2017,08,28,15,31,25.10
2017,08,28,15,32,25.10
2017,08,28,15,33,25.10
2017,08,28,15,34,25.10
2017,08,28,15,35,25.20
2017,08,28,15,36,25.20
2017,08,28,15,37,25.30
2017,08,28,15,38,25.30
2017,08,28,15,39,25.30
2017,08,28,15,40,25.40
2017,08,28,15,41,25.40
2017,08,28,15,42,25.50
2017,08,28,15,43,25.50
2017,08,28,15,44,25.30
2017,08,28,15,45,25.10
2017,08,28,15,46,25.00
2017,08,28,15,47,24.80
2017,08,28,15,48,24.70
2017,08,28,15,49,24.60
2017,08,28,15,50,24.50
2017,08,28,15,51,24.30
2017,08,28,15,52,24.20
2017,08,28,15,53,24.10
2017,08,28,15,54,23.90
2017,08,28,15,55,23.80
2017,08,28,15,56,23.70
2017,08,28,15,57,23.70
2017,08,28,15,58,23.60
2017,08,28,15,59,23.60
2017,08,28,16,00,23.60
2017,08,28,16,01,23.60
2017,08,28,16,02,23.70
2017,08,28,16,03,23.70
2017,08,28,16,04,23.70
2017,08,28,16,05,23.70
2017,08,28,16,06,23.60
2017,08,28,16,07,23.60
2017,08,28,16,08,23.50
2017,08,28,16,09,23.50
2017,08,28,16,10,23.50
2017,08,28,16,11,23.50
2017,08,28,16,12,23.70
2017,08,28,16,13,23.80
2017,08,28,16,14,23.90
2017,08,28,16,15,24.10
2017,08,28,16,16,24.20
2017,08,28,16,17,24.30
2017,08,28,16,18,24.30
2017,08,28,16,19,24.30
2017,08,28,16,20,24.30
2017,08,28,16,21,24.20
2017,08,28,16,22,24.10
2017,08,28,16,23,24.10
2017,08,28,16,24,24.00
2017,08,28,16,25,23.90
2017,08,28,16,26,23.90
2017,08,28,16,27,23.80
2017,08,28,16,28,23.80
2017,08,28,16,29,23.80
2017,08,28,16,30,23.70
2017,08,28,16,31,23.70
2017,08,28,16,32,23.70
2017,08,28,16,33,23.70
2017,08,28,16,34,23.50
2017,08,28,16,35,23.50
2017,08,28,16,36,23.40
2017,08,28,16,37,23.30
2017,08,28,16,38,23.20
2017,08,28,16,39,23.10
2017,08,28,16,40,23.10
2017,08,28,16,41,23.10
2017,08,28,16,42,23.10
2017,08,28,16,43,22.90
2017,08,28,16,44,22.80
2017,08,28,16,45,22.70
2017,08,28,16,46,22.70
2017,08,28,16,47,22.60
2017,08,28,16,48,22.60
2017,08,28,16,49,22.50
2017,08,28,16,50,22.50
2017,08,28,16,51,22.50
2017,08,28,16,52,22.50
2017,08,28,16,53,22.50
2017,08,28,16,54,22.50
2017,08,28,16,55,22.60
2017,08,28,16,56,22.60
2017,08,28,16,57,22.60
2017,08,28,16,58,22.60
2017,08,28,16,59,22.60
2017,08,28,17,00,22.70
2017,08,28,17,01,22.60
2017,08,28,17,02,22.50
2017,08,28,17,03,22.50
2017,08,28,17,04,22.40
2017,08,28,17,05,22.30
2017,08,28,17,06,22.20
2017,08,28,17,07,22.10
2017,08,28,17,08,22.10
2017,08,28,17,09,22.10
2017,08,28,17,10,22.10
2017,08,28,17,11,22.20
2017,08,28,17,12,22.20
2017,08,28,17,13,22.20
2017,08,28,17,14,22.20
2017,08,28,17,15,22.20
2017,08,28,17,16,22.20
2017,08,28,17,17,22.20
2017,08,28,17,18,22.20
2017,08,28,17,19,22.20
2017,08,28,17,20,22.30
2017,08,28,17,21,22.40
2017,08,28,17,22,22.40
2017,08,28,17,23,22.40
2017,08,28,17,24,22.40
2017,08,28,17,25,22.40
2017,08,28,17,26,22.30
2017,08,28,17,27,22.20
2017,08,28,17,28,22.00
2017,08,28,17,29,21.90
2017,08,28,17,30,21.80
2017,08,28,17,31,21.70
2017,08,28,17,32,21.70
2017,08,28,17,33,21.70
2017,08,28,17,34,21.80
2017,08,28,17,35,21.80
2017,08,28,17,36,21.80
2017,08,28,17,37,21.90
2017,08,28,17,38,21.90
2017,08,28,17,39,22.00
2017,08,28,17,40,22.10
2017,08,28,17,41,22.10
2017,08,28,17,42,22.10
2017,08,28,17,43,22.20
2017,08,28,17,44,22.20
2017,08,28,17,45,22.20
2017,08,28,17,46,22.20
2017,08,28,17,47,22.30
2017,08,28,17,48,22.30
2017,08,28,17,49,22.30
2017,08,28,17,50,22.30
2017,08,28,17,51,22.30
2017,08,28,17,52,22.30
2017,08,28,17,53,22.30
2017,08,28,17,54,22.30
2017,08,28,17,55,22.30
2017,08,28,17,56,22.30
2017,08,28,17,57,22.30
2017,08,28,17,58,22.30
2017,08,28,17,59,22.30
2017,08,28,18,00,22.20
2017,08,28,18,01,22.20
2017,08,28,18,02,22.10
2017,08,28,18,03,22.10
2017,08,28,18,04,22.10
2017,08,28,18,05,22.10
2017,08,28,18,06,22.00
2017,08,28,18,07,22.00
2017,08,28,18,08,21.90
2017,08,28,18,09,21.90
2017,08,28,18,10,21.90
2017,08,28,18,11,21.90
2017,08,28,18,12,21.90
2017,08,28,18,13,21.90
2017,08,28,18,14,21.90
2017,08,28,18,15,21.80
2017,08,28,18,16,21.90
2017,08,28,18,17,21.80
2017,08,28,18,18,21.90
2017,08,28,18,19,21.90
2017,08,28,18,20,21.90
2017,08,28,18,21,21.90
2017,08,28,18,22,22.00
2017,08,28,18,23,22.00
2017,08,28,18,24,22.00
2017,08,28,18,25,22.00
2017,08,28,18,26,22.10
2017,08,28,18,27,22.10
2017,08,28,18,28,22.10
2017,08,28,18,29,22.20
2017,08,28,18,30,22.20
2017,08,28,18,31,22.20
2017,08,28,18,32,22.10
2017,08,28,18,33,22.10
2017,08,28,18,34,22.00
2017,08,28,18,35,21.90
2017,08,28,18,36,21.90
2017,08,28,18,37,21.90
2017,08,28,18,38,21.90
2017,08,28,18,39,21.90
2017,08,28,18,40,21.90
2017,08,28,18,41,21.90
2017,08,28,18,42,21.90
2017,08,28,18,43,21.90
2017,08,28,18,44,21.80
2017,08,28,18,45,21.80
2017,08,28,18,46,21.70
2017,08,28,18,47,21.70
2017,08,28,18,48,21.70
2017,08,28,18,49,21.70
2017,08,28,18,50,21.80
2017,08,28,18,51,21.80
2017,08,28,18,52,21.80
2017,08,28,18,53,21.80
2017,08,28,18,54,21.80
2017,08,28,18,55,21.70
2017,08,28,18,56,21.70
2017,08,28,18,57,21.70
2017,08,28,18,58,21.70
2017,08,28,18,59,21.70
2017,08,28,19,00,21.70
2017,08,28,19,01,21.70
2017,08,28,19,02,21.60
2017,08,28,19,03,21.60
2017,08,28,19,04,21.60
2017,08,28,19,05,21.60
2017,08,28,19,06,21.60
2017,08,28,19,07,21.60
2017,08,28,19,08,21.60
2017,08,28,19,09,21.60
2017,08,28,19,10,21.60
2017,08,28,19,11,21.60
2017,08,28,19,12,21.50
2017,08,28,19,13,21.50
2017,08,28,19,14,21.50
2017,08,28,19,15,21.50
2017,08,28,19,16,21.50
2017,08,28,19,17,21.50
2017,08,28,19,18,21.60
2017,08,28,19,19,21.60
2017,08,28,19,20,21.60
2017,08,28,19,21,21.60
2017,08,28,19,22,21.60
2017,08,28,19,23,21.60
2017,08,28,19,24,21.60
2017,08,28,19,25,21.60
2017,08,28,19,26,21.60
2017,08,28,19,27,21.60
2017,08,28,19,28,21.60
2017,08,28,19,29,21.60
2017,08,28,19,30,21.60
2017,08,28,19,31,21.50
2017,08,28,19,32,21.50
2017,08,28,19,33,21.50
2017,08,28,19,34,21.50
2017,08,28,19,35,21.50
2017,08,28,19,36,21.50
2017,08,28,19,37,21.50
2017,08,28,19,38,21.50
2017,08,28,19,39,21.40
2017,08,28,19,40,21.40
2017,08,28,19,41,21.30
2017,08,28,19,42,21.30
2017,08,28,19,43,21.20
2017,08,28,19,44,21.20
2017,08,28,19,45,21.20
2017,08,28,19,46,21.10
2017,08,28,19,47,21.10
2017,08,28,19,48,21.10
2017,08,28,19,49,21.00
2017,08,28,19,50,21.00
2017,08,28,19,51,20.90
2017,08,28,19,52,20.90
2017,08,28,19,53,20.90
2017,08,28,19,54,20.80
2017,08,28,19,55,20.80
2017,08,28,19,56,20.80
2017,08,28,19,57,20.70
2017,08,28,19,58,20.70
2017,08,28,19,59,20.60
2017,08,28,20,00,20.60
2017,08,28,20,01,20.60
2017,08,28,20,02,20.60
2017,08,28,20,03,20.50
2017,08,28,20,04,20.50
2017,08,28,20,05,20.40
2017,08,28,20,06,20.40
2017,08,28,20,07,20.40
2017,08,28,20,08,20.40
2017,08,28,20,09,20.40
2017,08,28,20,10,20.40
2017,08,28,20,11,20.40
2017,08,28,20,12,20.40
2017,08,28,20,13,20.40
2017,08,28,20,14,20.40
2017,08,28,20,15,20.40
